TimeEST,TemperatureF,Dew PointF,Humidity,Sea Level PressureIn,VisibilityMPH,Wind Direction,Wind SpeedMPH,Gust SpeedMPH,PrecipitationIn,Events,Conditions,WindDirDegrees,DateUTC
12:54 AM,34.0,25.0,70,29.68,10.0,NNW,18.4,21.9,N/A,,Scattered Clouds,340,2013-03-06 05:54:00
1:54 AM,32.0,25.0,75,29.69,3.0,NW,15.0,28.8,0.00,Snow,Light Snow,310,2013-03-06 06:54:00
2:28 AM,30.2,21.2,69,29.69,10.0,NNW,19.6,27.6,0.00,,Mostly Cloudy,330,2013-03-06 07:28:00
2:54 AM,30.9,21.0,67,29.70,10.0,NNW,17.3,27.6,0.00,,Overcast,330,2013-03-06 07:54:00
3:54 AM,30.0,19.0,64,29.69,10.0,NNW,10.4,17.3,N/A,,Mostly Cloudy,330,2013-03-06 08:54:00
4:54 AM,28.0,21.9,78,29.72,3.0,NNW,17.3,32.2,0.00,Snow,Light Snow,330,2013-03-06 09:54:00
5:54 AM,28.0,19.9,72,29.74,7.0,NW,19.6,26.5,0.00,Snow,Light Snow,320,2013-03-06 10:54:00
6:54 AM,27.0,19.9,75,29.76,9.0,NNW,13.8,-,0.00,Snow,Light Snow,340,2013-03-06 11:54:00
7:54 AM,28.0,21.0,75,29.78,10.0,NNW,18.4,27.6,0.00,Snow,Light Snow,340,2013-03-06 12:54:00
8:54 AM,28.9,21.9,75,29.79,9.0,North,18.4,29.9,0.00,,Overcast,350,2013-03-06 13:54:00
9:54 AM,34.0,19.9,56,29.81,10.0,NNW,23.0,35.7,N/A,,Scattered Clouds,340,2013-03-06 14:54:00
10:54 AM,35.1,19.0,52,29.86,10.0,NNW,25.3,46.0,N/A,,Scattered Clouds,340,2013-03-06 15:54:00
11:54 AM,34.0,21.0,59,29.90,10.0,North,18.4,34.5,N/A,,Overcast,350,2013-03-06 16:54:00
12:38 PM,32.0,21.2,64,29.90,10.0,North,17.3,29.9,N/A,,Overcast,360,2013-03-06 17:38:00
12:54 PM,32.0,21.9,66,29.93,10.0,North,16.1,26.5,N/A,,Overcast,350,2013-03-06 17:54:00
1:08 PM,32.0,21.2,64,29.91,10.0,NNW,16.1,35.7,N/A,,Overcast,340,2013-03-06 18:08:00
1:54 PM,30.9,21.9,69,29.96,10.0,NNW,18.4,28.8,N/A,,Overcast,340,2013-03-06 18:54:00
2:54 PM,30.9,23.0,72,29.99,10.0,North,16.1,27.6,0.00,,Overcast,350,2013-03-06 19:54:00
3:54 PM,30.0,24.1,79,30.04,10.0,North,15.0,24.2,0.00,,Overcast,10,2013-03-06 20:54:00
4:54 PM,30.0,24.1,79,30.07,10.0,North,13.8,24.2,N/A,,Overcast,360,2013-03-06 21:54:00
5:18 PM,30.2,24.8,80,30.03,10.0,North,17.3,26.5,N/A,,Overcast,10,2013-03-06 22:18:00
5:54 PM,30.0,24.1,79,30.09,10.0,North,17.3,24.2,N/A,,Overcast,360,2013-03-06 22:54:00
6:46 PM,30.2,24.8,80,30.08,10.0,North,15.0,28.8,N/A,,Overcast,10,2013-03-06 23:46:00
6:54 PM,30.0,24.1,79,30.12,10.0,North,17.3,26.5,N/A,,Overcast,10,2013-03-06 23:54:00
7:36 PM,30.2,24.8,80,30.09,10.0,North,15.0,32.2,N/A,,Overcast,350,2013-03-07 00:36:00
7:54 PM,30.0,24.1,79,30.13,10.0,North,20.7,27.6,N/A,,Overcast,350,2013-03-07 00:54:00
8:54 PM,30.0,24.1,79,30.13,10.0,North,18.4,29.9,N/A,,Overcast,360,2013-03-07 01:54:00
9:54 PM,30.0,24.1,79,30.13,10.0,NNW,23.0,31.1,N/A,,Overcast,340,2013-03-07 02:54:00
10:54 PM,28.9,24.1,82,30.16,10.0,North,12.7,21.9,N/A,,Overcast,360,2013-03-07 03:54:00
11:54 PM,28.9,23.0,78,30.17,10.0,NNW,20.7,26.5,N/A,,Overcast,340,2013-03-07 04:54:00